FLOCK 3K-11 (43904 NORAD) Tracking and Keplerian Element Data

This shows tracking and keplerian element data for the satellite.

Feedback or suggestion? Click here.




ElementValue
Catalog43904
NameFLOCK 3K-11
Epoch Orbit459
Epoch Day26.22440356
Epoch Year2019
RAAN295.3164
Inclination97.299
Eccentricity0.0023687
Argument of Perigee134.947
Mean Anonmoly225.3693
Mean Motion15.23829826
Decay Rate4.164E-05
L11 43904U 18111AE 19026.22440356 .00004164 00000-0 17438-3 0 9997
L22 43904 97.2990 295.3164 0023687 134.9470 225.3693 15.23829826 4596

Live tracking and technical data element details for FLOCK 3K-11 (NORAD 43904). FLOCK 3K-11 can be tracked NOW for your location showing map with azimuth and elevation plus other details from your city location.

Track the satellite on the map from your city or location and see movement details for azimuth, elevation, latitude, longitude, range, height, and movement on the map or in text.







IsCatalogInMostPopularTable: catalog: 43904, numindb: 85
Update: records affected: 1



GetName: 43904 FLOCK 3K-11

Hit Count: updated at: Thu, 23 May 2019 14:42:44 GMT